GSAT0203 (GALILEO 7)

Last updated on Fri Aug 14 2026 00:02:53 GMT+0000 (Coordinated Universal Time)

1 40544U 15017A 26216.31258824 -.00000079 00000+0 00000+0 0 9996 2 40544 56.7688 340.2856 0003311 250.5210 109.4561 1.70476292 70023
UTC large
Height (km)
Speed (km/s)
/
Latitude / Longitude
Inclination (degrees)
Orbital Period (minutes)
Azimuth
Elevation
Range (km)
Doppler Factor

Next 0 passes for location: London (51.5072 / 0.1276)

No passes found over London.
GSAT0203 (GALILEO 7)